Flag for Canada Weather past 2 weeks in Trois-Rivieres, Quebec, Canada

Now
74 °F

Mild.


Feels Like: 77 °F
Forecast: 63 / 74 °F
Wind: 6 mph from West

Location: Trois Rivieres

Current Time: Aug 27, 2014 at 1:27:57 PM

Latest Report: Aug 27, 2014 at 12:00 PM


Visibility: N/A

Pressure: 29.89 "Hg

Humidity: 56%

Dew point: 57 °F

Location of Trois-RivieresLocation

Historic Weather in Trois-Rivieres — Graph

°F

Trois-Rivieres temperature yesterday

Maximum temperature yesterday: 79 °F (at 3:00 PM)
Minimum temperature yesterday: 65 °F (at 8:00 AM)
Average temperature yesterday: 72 °F

Past Weeks' High & Low Weather Summary

 TemperatureHumidityPressure
High80 °F (Aug 12, 4:00 PM)100% (Aug 14, 1:00 AM)30.17 "Hg (Aug 14, 1:00 AM)
Low54 °F (Aug 19, 6:00 AM)51% (Aug 12, 4:00 PM)29.63 "Hg (Aug 14, 5:00 AM)
Average66 °F82%29.94 "Hg
* Reported Aug 12 11:00 AM — Aug 27 11:00 AM, Trois-Rivieres, Weather by CustomWeather, © 2014

Note: Actual official high and low records may vary slightly from our data, if they occured in-between our weather recording intervals... More about our weather records

Advertising

Trois-Rivieres weather history for previous 24 hours

 ConditionsComfort  
Time TempWeatherWind HumidityBarometerVisibility
11:00 AM
Aug 27
73 °FMild.7 mph58%29.89 "HgN/A
10:00 AM72 °FMild.7 mph60%29.89 "HgN/A
9:00 AM70 °FMild.5 mph67%29.89 "HgN/A
8:00 AM67 °FMild.9 mph82%29.89 "HgN/A
7:00 AM69 °FMild.8 mph82%29.87 "HgN/A
6:00 AM69 °FMild.5 mph93%29.85 "HgN/A
5:00 AM70 °FMild.3 mph88%29.84 "HgN/A
4:00 AM72 °FMild.7 mph89%29.83 "HgN/A
3:00 AM72 °FMild.14 mph85%29.83 "HgN/A
2:00 AM72 °FMild.13 mph92%29.83 "HgN/A
1:00 AM72 °FMild.24 mph91%29.83 "HgN/A
12:00 AM72 °FMild.16 mph87%29.84 "HgN/A
11:00 PM
Aug 26
74 °FMild.16 mph80%29.85 "HgN/A
10:00 PM74 °FMild.13 mph84%29.87 "HgN/A
9:00 PM72 °FMild.13 mph80%29.86 "HgN/A
8:00 PM76 °FMild.13 mph74%29.87 "HgN/A
7:00 PM76 °FMild.15 mph76%29.89 "HgN/A
6:00 PM77 °FMild.14 mph75%29.90 "HgN/A
5:00 PM79 °FWarm.17 mph66%29.92 "HgN/A
4:00 PM79 °FWarm.20 mph64%29.94 "HgN/A
3:00 PM79 °FWarm.21 mph64%29.97 "HgN/A
2:00 PM78 °FWarm.22 mph61%29.98 "HgN/A
1:00 PM76 °FMild.15 mph75%30.00 "HgN/A
Weather by CustomWeather, © 2014

See weather overviewHow to use our weather pages